IZ0ANE-13 Weather Reports


time (UTC)temp
C
wind
direction
speed
KPH
gust
KPH
rain 1hr
cm
rain 24hr
cm
rain mn
cm
humidity
%
barometer
mb
20260504032004 11 195 0.0 1.6 0.00 0.00 0.00 87 1019.0
20260504030004 11 135 0.0 1.6 0.00 0.00 0.00 87 1019.1
20260504024004 11 225 1.6 3.2 0.00 0.00 0.00 86 1019.1
20260504022004 11 219 0.0 1.6 0.00 0.00 0.00 85 1019.2
20260504014003 12 0 0.0 0.0 0.00 0.00 0.00 85 1019.1
20260504012003 11 186 0.0 3.2 0.00 0.00 0.00 85 1019.3
20260504010003 12 13 0.0 1.6 0.00 0.00 0.00 82 1019.1
20260504004024 12 95 1.6 3.2 0.00 0.00 0.00 83 1019.2
20260504002024 12 0 0.0 0.0 0.00 0.00 0.00 84 1019.3
20260504000003 12 0 0.0 0.0 0.00 0.00 0.00 82 1019.1
20260503234003 13 126 0.0 3.2 0.00 0.00 0.00 81 1019.1
20260503232003 13 54 0.0 1.6 0.00 0.00 0.00 79 1019.4
20260503230003 13 48 1.6 3.2 0.00 0.00 0.00 79 1019.4
20260503224003 14 200 0.0 3.2 0.00 0.00 0.00 78 1019.4
20260503222003 14 153 1.6 4.8 0.00 0.00 0.00 78 1019.4
20260503220003 14 31 0.0 1.6 0.00 0.00 0.00 77 1019.2
20260503214003 15 164 1.6 4.8 0.00 0.00 0.00 75 1019.2
20260503212003 15 58 1.6 3.2 0.00 0.00 0.00 73 1019.0
20260503210003 16 35 1.6 3.2 0.00 0.00 0.00 71 1018.9
20260503204003 16 166 0.0 1.6 0.00 0.00 0.00 75 1018.9
20260503202003 16 146 0.0 3.2 0.00 0.00 0.00 75 1018.8
20260503200003 17 235 1.6 6.4 0.00 0.00 0.00 73 1018.6
20260503194003 17 227 3.2 9.7 0.00 0.00 0.00 70 1018.5
20260503192024 17 179 0.0 4.8 0.00 0.00 0.00 66 1018.4
20260503190003 18 113 1.6 4.8 0.00 0.00 0.00 65 1018.1
20260503184003 18 239 0.0 1.6 0.00 0.00 0.00 66 1018.0
20260503182024 19 311 1.6 3.2 0.00 0.00 0.00 62 1017.7
20260503180003 19 291 1.6 4.8 0.00 0.00 0.00 62 1017.6
20260503174003 19 219 1.6 3.2 0.00 0.00 0.00 61 1017.4
20260503172003 20 227 3.2 6.4 0.00 0.00 0.00 60 1017.3
20260503072003 15 81 1.6 3.2 0.00 0.00 0.00 56 1021.3
20260503054003 10 121 1.6 4.8 0.00 0.00 0.00 76 1021.5
20260503052003 10 214 0.0 4.8 0.00 0.00 0.00 71 1021.3
20260503050003 8 124 0.0 1.6 0.00 0.00 0.00 81 1021.2
20260503044024 7 195 0.0 3.2 0.00 0.00 0.00 82 1021.0
20260503042003 7 126 0.0 1.6 0.00 0.00 0.00 82 1020.9
20260503040003 8 149 0.0 3.2 0.00 0.00 0.00 80 1020.9
20260503034004 8 0 0.0 0.0 0.00 0.00 0.00 80 1020.8